Retour au catalogue

DELTA 1 DEB

ActifSSO
NORAD 21547·DEBRIS·🇺🇸 United States

Lancé Jun 12, 1975 depuis Vandenberg Space Force Base

Loading…

Prochains Passages (prochaines 24 heures)

TLE

FraisSource: Space-Track

Époque: Sep 14, 2026, 03:24 UTC

1 21547U 75052HB  26257.14223545  .00000525  00000-0  64819-3 0  9999
2 21547  99.7355 127.1644 0249726 356.0857 154.5277 13.57690415743318

Suivez DELTA 1 DEB en temps réel avec AllMySat

Download on the App Store